Weather History for Gunnison, CO

Change the Weather History Date:

Sunday, March 17, 2013

  Actual Average Record
Temperature  
Mean Temperature 38 °F -  
Max Temperature 48 °F 44 °F 64 °F (2007)
Min Temperature 28 °F 17 °F 14 °F (2005)
Degree Days  
Heating Degree Days 27    
Moisture  
Dew Point 22 °F    
Average Humidity 62    
Maximum Humidity 86    
Minimum Humidity 27    
Precipitation  
Precipitation 0.05 in - - ()
Sea Level Pressure  
Sea Level Pressure 29.87 in    
Wind  
Wind Speed 4 mph (WNW)    
Max Wind Speed 33 mph    
Max Gust Speed 47 mph    
Visibility 9 miles    
Events      
Averages and records for this station are not official NWS values.
T = Trace of Precipitation, MM = Missing Value Source: NWS Daily Summary

Daily Weather History Graph

Daily Weather History Graph

Search for Another Location

Airport:

Trip Planner

Search our weather history database for the weather conditions in past years. The results will help you decide how hot, cold, wet, or windy it might be!

Date:

Astronomy

Mar. 17, 2013 Rise Set
Actual Time 7:15 AM MDT 7:17 PM MDT
Civil Twilight 6:48 AM MDT 7:43 PM MDT
Nautical Twilight 6:18 AM MDT 8:14 PM MDT
Astronomical Twilight 5:46 AM MDT 8:45 PM MDT
Moon 10:34 AM MDT (3/17) 12:23 AM MDT (3/17)
Length of Visible Light 12h 54m
Length of Day
12h 01m
Waxing Crescent, 32% of the Moon is Illuminated
Mar 17
Waxing Crescent
Mar 19
First Quarter
Mar 27
Full
Apr 2
Last Quarter
Apr 10
New

Hourly Weather History & Observations

Time (MDT) Temp. Windchill Dew Point Humidity Pressure Visibility Wind Dir Wind Speed Gust Speed Precip Events Conditions
12:15 AM 32.0 °F - 26.6 °F 80% 30.00 in 7.0 mi Calm Calm - N/A   Mostly Cloudy
12:35 AM 30.2 °F - 26.6 °F 86% 29.99 in 10.0 mi Calm Calm - N/A   Mostly Cloudy
12:55 AM 30.2 °F - 24.8 °F 80% 29.99 in 10.0 mi Calm Calm - N/A   Mostly Cloudy
1:15 AM 28.4 °F - 24.8 °F 86% 29.98 in 10.0 mi Calm Calm - N/A   Overcast
1:35 AM 30.2 °F - 24.8 °F 80% 29.98 in 9.0 mi Calm Calm - N/A   Overcast
2:15 AM 30.2 °F - 24.8 °F 80% 29.98 in 5.0 mi Calm Calm - N/A   Overcast
2:35 AM 30.2 °F - 24.8 °F 80% 29.97 in 10.0 mi Calm Calm - N/A   Overcast
2:55 AM 30.2 °F - 24.8 °F 80% 29.97 in 10.0 mi Calm Calm - N/A   Overcast
3:15 AM 30.2 °F - 24.8 °F 80% 29.96 in 10.0 mi Calm Calm - N/A   Overcast
3:35 AM 30.2 °F - 26.6 °F 86% 29.96 in 10.0 mi Calm Calm - N/A   Overcast
3:55 AM 30.2 °F - 24.8 °F 80% 29.96 in 9.0 mi Calm Calm - N/A   Overcast
4:15 AM 30.2 °F - 24.8 °F 80% 29.94 in 8.0 mi Calm Calm - N/A   Overcast
4:35 AM 30.2 °F - 24.8 °F 80% 29.93 in 8.0 mi Calm Calm - N/A   Overcast
4:55 AM 30.2 °F - 26.6 °F 86% 29.92 in 10.0 mi Calm Calm - N/A   Overcast
5:15 AM 30.2 °F - 26.6 °F 86% 29.91 in 10.0 mi Calm Calm - N/A   Overcast
5:35 AM 30.2 °F - 26.6 °F 86% 29.90 in 10.0 mi Calm Calm - N/A   Overcast
5:55 AM 30.2 °F - 26.6 °F 86% 29.89 in 10.0 mi Calm Calm - N/A   Overcast
6:15 AM 30.2 °F - 26.6 °F 86% 29.89 in 10.0 mi Calm Calm - N/A   Overcast
6:35 AM 30.2 °F - 24.8 °F 80% 29.90 in 10.0 mi Calm Calm - N/A   Overcast
6:55 AM 28.4 °F - 21.2 °F 74% 29.89 in 10.0 mi Calm Calm - N/A   Overcast
7:15 AM 28.4 °F - 24.8 °F 86% 29.90 in 6.0 mi Calm Calm - N/A   Overcast
7:35 AM 30.2 °F - 24.8 °F 80% 29.89 in 1.5 mi Calm Calm - N/A   Overcast
7:55 AM 30.2 °F - 24.8 °F 80% 29.87 in 3.0 mi Calm Calm - N/A   Overcast
8:15 AM 30.2 °F - 24.8 °F 80% 29.87 in 1.2 mi Calm Calm - N/A   Overcast
8:35 AM 30.2 °F - 26.6 °F 86% 29.88 in 0.5 mi Calm Calm - N/A   Overcast
8:55 AM 28.4 °F - 23.0 °F 80% 29.89 in 0.5 mi Calm Calm - N/A   Overcast
9:15 AM 28.4 °F - 23.0 °F 80% 29.89 in 1.0 mi Calm Calm - N/A   Overcast
9:35 AM 28.4 °F - 24.8 °F 86% 29.88 in 1.5 mi Calm Calm - N/A   Overcast
9:55 AM 30.2 °F - 24.8 °F 80% 29.88 in 3.0 mi Calm Calm - 0.01 in   Overcast
10:15 AM 32.0 °F - 26.6 °F 80% 29.88 in 10.0 mi Calm Calm - 0.01 in   Overcast
10:35 AM 32.0 °F - 26.6 °F 80% 29.88 in 0.8 mi Calm Calm - 0.02 in   Overcast
10:55 AM 33.8 °F - 28.4 °F 81% 29.87 in 10.0 mi Calm Calm - 0.03 in   Overcast
11:15 AM 35.6 °F 29.2 °F 28.4 °F 75% 29.87 in 10.0 mi ENE 8.1 mph - N/A   Overcast
11:35 AM 37.4 °F 32.8 °F 30.2 °F 75% 29.86 in 10.0 mi ENE 5.8 mph - N/A   Mostly Cloudy
11:55 AM 39.2 °F 37.0 °F 30.2 °F 70% 29.85 in 10.0 mi East 3.5 mph - N/A   Mostly Cloudy
12:15 PM 39.2 °F 35.9 °F 30.2 °F 70% 29.83 in 10.0 mi East 4.6 mph - N/A   Clear
12:35 PM 41.0 °F 38.0 °F 32.0 °F 70% 29.82 in 10.0 mi ENE 4.6 mph - N/A   Partly Cloudy
12:55 PM 42.8 °F 37.5 °F 33.8 °F 70% 29.81 in 10.0 mi North 9.2 mph - N/A   Mostly Cloudy
1:15 PM 39.2 °F 33.0 °F 30.2 °F 70% 29.80 in 10.0 mi North 9.2 mph - N/A   Mostly Cloudy
1:35 PM 39.2 °F 35.0 °F 30.2 °F 70% 29.79 in 10.0 mi ENE 5.8 mph - N/A   Mostly Cloudy
1:55 PM 39.2 °F 37.0 °F 28.4 °F 65% 29.78 in 10.0 mi SE 3.5 mph - N/A   Mostly Cloudy
2:15 PM 39.2 °F 34.2 °F 28.4 °F 65% 29.77 in 10.0 mi South 6.9 mph - N/A   Overcast
2:35 PM 42.8 °F 35.1 °F 26.6 °F 53% 29.75 in 10.0 mi WSW 16.1 mph 24.2 mph N/A   Scattered Clouds
2:55 PM 46.4 °F 38.3 °F 24.8 °F 43% 29.74 in 10.0 mi WSW 23.0 mph 32.2 mph N/A   Clear
3:15 PM 48.2 °F - 19.4 °F 32% 29.75 in 10.0 mi West 23.0 mph 36.8 mph 0.01 in   Clear
3:35 PM 48.2 °F - 17.6 °F 30% 29.74 in 10.0 mi West 33.4 mph 46.0 mph 0.01 in   Partly Cloudy
3:55 PM 48.2 °F - 19.4 °F 32% 29.75 in 10.0 mi WNW 29.9 mph 41.4 mph 0.01 in   Partly Cloudy
4:15 PM 46.4 °F 39.2 °F 15.8 °F 29% 29.76 in 10.0 mi West 18.4 mph 25.3 mph N/A   Scattered Clouds
4:35 PM 44.6 °F 35.3 °F 19.4 °F 37% 29.76 in 10.0 mi NW 26.5 mph 32.2 mph N/A   Overcast
4:55 PM 44.6 °F 35.7 °F 15.8 °F 31% 29.78 in 10.0 mi West 24.2 mph 47.2 mph N/A   Mostly Cloudy
5:15 PM 44.6 °F 35.3 °F 17.6 °F 34% 29.78 in 10.0 mi West 26.5 mph 38.0 mph N/A   Overcast
5:35 PM 42.8 °F 34.8 °F 12.2 °F 29% 29.78 in 10.0 mi West 17.3 mph 29.9 mph N/A   Mostly Cloudy
5:55 PM 44.6 °F 36.1 °F 15.8 °F 31% 29.78 in 10.0 mi WNW 21.9 mph 29.9 mph N/A   Overcast
6:15 PM 42.8 °F 34.8 °F 12.2 °F 29% 29.78 in 10.0 mi West 17.3 mph 35.7 mph N/A   Mostly Cloudy
6:35 PM 42.8 °F 34.3 °F 10.4 °F 27% 29.79 in 10.0 mi WNW 19.6 mph 33.4 mph N/A   Mostly Cloudy
6:55 PM 42.8 °F 34.3 °F 12.2 °F 29% 29.81 in 10.0 mi WNW 19.6 mph 25.3 mph N/A   Overcast
7:15 PM 41.0 °F 34.3 °F 12.2 °F 31% 29.83 in 10.0 mi NW 11.5 mph 33.4 mph N/A   Scattered Clouds
7:35 PM 37.4 °F 30.3 °F 14.0 °F 38% 29.84 in 10.0 mi WNW 10.4 mph 16.1 mph N/A   Clear
7:55 PM 35.6 °F 26.2 °F 15.8 °F 44% 29.84 in 10.0 mi WNW 15.0 mph 19.6 mph N/A   Partly Cloudy
8:15 PM 35.6 °F 28.6 °F 15.8 °F 44% 29.85 in 10.0 mi West 9.2 mph 20.7 mph N/A   Clear
8:35 PM 35.6 °F 28.0 °F 14.0 °F 41% 29.87 in 10.0 mi NW 10.4 mph 17.3 mph N/A   Clear
8:55 PM 33.8 °F 25.8 °F 15.8 °F 48% 29.86 in 10.0 mi NNW 10.4 mph - N/A   Clear
9:15 PM 33.8 °F 26.4 °F 17.6 °F 52% 29.86 in 10.0 mi WNW 9.2 mph - N/A   Clear
9:35 PM 35.6 °F 26.6 °F 14.0 °F 41% 29.87 in 10.0 mi WNW 13.8 mph 20.7 mph N/A   Partly Cloudy
10:15 PM 35.6 °F 28.0 °F 10.4 °F 35% 29.89 in 10.0 mi West 10.4 mph 21.9 mph N/A   Clear
10:35 PM 35.6 °F 27.5 °F 10.4 °F 35% 29.89 in 10.0 mi WNW 11.5 mph - N/A   Clear
10:55 PM 35.6 °F 28.6 °F 10.4 °F 35% 29.90 in 10.0 mi West 9.2 mph - N/A   Clear
11:15 PM 33.8 °F 29.6 °F 8.6 °F 35% 29.91 in 10.0 mi West 4.6 mph - N/A   Clear
11:35 PM 33.8 °F 28.6 °F 10.4 °F 38% 29.92 in 10.0 mi WSW 5.8 mph - N/A   Clear
11:55 PM 32.0 °F 25.6 °F 8.6 °F 38% 29.92 in 10.0 mi WSW 6.9 mph - N/A   Clear